www.pogodaiklimat.ru
ПОГОДА в Краун-Пойнте
Время
(UTC), дата
21 7.04
00 8.04
03 8.04
06 8.04
09 8.04
12 8.04
15 8.04
18 8.04
21 8.04
00 9.04
03 9.04
06 9.04
09 9.04
12 9.04
15 9.04
18 9.04
21 9.04
00 10.04
03 10.04
06 10.04
09 10.04
12 10.04
15 10.04
18 10.04
21 10.04
00 11.04
03 11.04
06 11.04
09 11.04
12 11.04
15 11.04
18 11.04
21 11.04
00 12.04
03 12.04
06 12.04
09 12.04
12 12.04
15 12.04
18 12.04
21 12.04
00 13.04
03 13.04
06 13.04
09 13.04
12 13.04
15 13.04
18 13.04
21 13.04
00 14.04
03 14.04
06 14.04
09 14.04
12 14.04
15 14.04
18 14.04
Ветер
(напр.,м/с)
Видим. Явления Облачность Т
(С)
Тd
(С)
f
(%)
Тe
(С)
Тes
(С)
Комфортность P
(гПа)
Po
(гПа)
Тmin
(С)
Tmax
(С)
R
(мм)
R24
(мм)
S
(см)
ЮВ 12 12 км пыль 1/1 600 м
[Cu med, cong Ci sp]
+29.1 +23.5 72 +40 +40 очень
душно
1011.0 1009.0
В 5 12 км пыль ясно +26.3 +22.2 78 +34 +34 очень
душно
1012.3 1010.3 +23.9 +30.7
штиль 0 12 км пыль 1/1 540 м
[Cu hum]
+24.8 +22.3 86 +32 +32 очень
душно
1013.7 1011.7
СВ 4 12 км пыль 3/3 480 м
[Cu Sc]
+24.6 +22.5 88 +32 +32 очень
душно
1011.8 1009.8 +23.9 +30.7
СВ 3 12 км пыль 1/1 480 м
[Cu hum]
+24.6 +21.4 82 +31 +31 очень
душно
1011.4 1009.4
В 6 9000 м пыль 6/3 600 м
[Cu med, cong Ci fib]
+27.7 +22.4 73 +36 +38 очень
душно
1013.3 1011.3 +24.3 +30.7
ЮВ 12 9000 м пыль 9/1 660 м
[Cu med, cong Ci sp]
+29.7 +21.9 63 +38 +38 очень
душно
1014.2 1012.2
ЮВ 11 9000 м пыль 8/1 660 м
[Cu med, cong Ci sp]
+30.4 +23.1 65 +41 +41 опасность
перегрева
1012.0 1010.0 +24.3 +30.9
В 10 9000 м пыль 9/1 600 м
[Cu hum Ci sp]
+28.9 +22.6 69 +38 +38 очень
душно
1010.4 1008.4
В 4 9000 м пыль 9/1 540 м
[Cu hum Ci sp]
+26.6 +22.8 80 +35 +35 очень
душно
1012.0 1010.0 +24.3 +30.9
штиль 0 9000 м пыль 5/0 300 м
[Ac As Cs]
+25.2 +21.6 80 +32 +32 очень
душно
1013.5 1011.5
штиль 0 9000 м пыль 4/1 480 м
[Cu hum Ci sp]
+24.4 +22.0 86 +31 +31 очень
душно
1012.2 1010.2 +24.3 +30.9
В 4 9000 м пыль 5/1 480 м
[Cu hum Ci sp]
+24.8 +22.2 85 +32 +32 очень
душно
1011.7 1009.7
В 6 9000 м пыль 5/1 540 м
[Cu med, cong Ac trans Ci sp]
+27.6 +22.9 76 +37 +39 очень
душно
1013.4 1011.4 +24.3 +30.9
ЮВ 14 10 км пыль 9/1 540 м
[Cu Sc Ac As Ci sp]
+29.3 +23.6 71 +40 +40 очень
душно
1014.5 1012.5
В 11 10 км пыль {дождь} 9/4 540 м
[Cu Sc Ac As Ci sp]
+29.0 +24.9 79 +42 +42 опасность
перегрева
1012.4 1010.4 +24.3 +30.7 0.1
ЮВ 11 10 км осадки на расстоянии 8/6 540 м
[Cu Sc Ac trans Ci sp]
+27.4 +23.1 77 +37 +37 очень
душно
1011.6 1009.6
СВ 4 10 км пыль 9/6 540 м
[Cu Sc Ac trans Ci sp]
+26.5 +22.6 79 +35 +35 очень
душно
1013.4 1011.4 +24.3 +31.7
В 3 10 км осадки на расстоянии {ливн. дождь} 9/8 450 м
[Cu Sc]
+25.4 +23.0 87 +34 +34 очень
душно
1014.5 1012.5
штиль 0 10 км пыль {ливн. дождь} 9/8 450 м
[Cu Sc]
+24.6 +22.2 87 +32 +32 очень
душно
1011.8 1009.8 +24.3 +31.7 16
СВ 4 15 км пыль 8/6 450 м
[Cu Sc Ac As Ci sp]
+24.9 +22.4 86 1013.7 1011.9
В 5 15 км пыль {ливн. дождь} 9/5 360 м
[Cb cap Ac As Ci sp]
+27.2 +22.9 77 +36 +37 очень
душно
1013.4 1011.4 +23.9 +30.7 2 17.7
ЮВ 9 18 км осадки на расстоянии 9/3 540 м
[Cu Sc Ac As Cs]
+27.1 +23.0 78 +36 +37 очень
душно
1014.4 1012.4
ЮВ 7 22 км мгла {дождь} 9/4 540 м
[Cu Sc Ac trans Cs]
+29.6 +23.5 70 +40 +42 очень
душно
1011.9 1009.9 +23.9 +30.0 0.0
В 7 18 км осадки на расстоянии {ливн. дождь} 9/3 480 м
[Cu Sc Ac As Ci sp]
+26.4 +23.6 85 +36 +36 очень
душно
1010.6 1008.6
В 3 20 км мгла 5/1 480 м
[Cu Sc Ci sp]
+25.6 +23.3 87 +34 +34 очень
душно
1011.3 1009.3 +23.9 +30.0 0.3
СВ 4 20 км мгла 5/3 480 м
[Cu Sc Ci sp]
+25.7 +22.6 83 +34 +34 очень
душно
1012.0 1010.0
штиль 0 20 км мгла 6/1 480 м
[Cu hum Ac trans Ci sp]
+25.0 +21.2 79 +32 +32 очень
душно
1011.1 1009.1 +23.9 +30.0
СВ 3 20 км мгла 5/1 480 м
[Cu hum Ac trans Ci sp]
+24.4 +21.0 81 +31 +31 очень
душно
1010.9 1008.9
В 6 14 км пыль 3/1 600 м
[Cu hum Ci sp]
+27.8 +22.5 73 +37 +39 очень
душно
1012.7 1010.7 +24.2 +30.0 0.3
ЮВ 10 10 км пыль 5/4 600 м
[Cu med, cong Ci sp]
+29.3 +22.7 68 +39 +39 очень
душно
1013.1 1011.1
ЮВ 9 13 км пыль 6/1 660 м
[Cu med, cong Ci sp]
+29.8 +24.1 72 +42 +43 опасность
перегрева
1011.4 1009.4 +24.2 +30.2
ЮВ 9 13 км пыль 8/1 660 м
[Cu Sc Ci sp]
+29.1 +23.0 70 +39 +39 очень
душно
1010.1 1008.1
В 5 18 км пыль 3/1 480 м
[Cu hum Ci sp]
+26.4 +23.4 84 +36 +36 очень
душно
1011.3 1009.3 +24.2 +30.3
В 6 18 км пыль 3/1 480 м
[Cu hum Ci sp]
+26.3 +23.8 86 +36 +36 очень
душно
1012.5 1010.5
ЮВ 8 18 км пыль 5/1 480 м
[Cu Sc Ci sp]
+26.2 +24.1 88 +36 +36 очень
душно
1010.4 1008.4 +24.2 +30.3
ЮВ 8 17 км осадки на расстоянии {ливн. дождь} 9/3 480 м
[Cu Sc Ac trans Ci sp]
+26.2 +23.0 83 +35 +35 очень
душно
1011.0 1009.0
ЮВ 9 17 км пыль {ливн. дождь} 9/3 540 м
[Cu Sc Ac trans Ci sp]
+28.3 +23.5 75 +38 +39 очень
душно
1013.2 1011.2 +25.9 +30.3 0.0 0.0
ЮВ 8 14 км осадки на расстоянии {ливн. дождь} 9/5 540 м
[Cu Sc Ac As Cs]
+28.7 +25.2 81 +42 +43 опасность
перегрева
1014.0 1012.0
ЮВ 10 16 км пыль {ливн. дождь} 9/3 540 м
[Cu Sc Ac As Cs]
+29.8 +24.3 72 +42 +42 опасность
перегрева
1011.4 1009.4 +25.9 +30.6 0.5
ЮВ 13 14 км осадки на расстоянии 8/5 480 м
[Cu Sc Ac As Ci sp]
+28.2 +23.0 73 +38 +38 очень
душно
1010.5 1008.5
В 8 16 км пыль {ливн. дождь} 5/1 480 м
[Cu hum Ci sp]
+26.6 +22.9 80 +35 +35 очень
душно
1012.1 1010.1 +25.9 +31.2 0.0
В 10 16 км пыль 3/1 480 м
[Cu hum Ci sp]
+26.8 +22.7 78 +35 +35 очень
душно
1013.8 1011.8
В 8 16 км пыль 3/1 480 м
[Cu hum Ci sp]
+26.4 +22.8 81 +35 +35 очень
душно
1011.5 1009.5 +25.9 +31.2
ЮВ 11 16 км пыль 3/1 480 м
[Cu hum Ci sp]
+26.4 +23.7 85 +36 +36 очень
душно
1011.6 1009.6
ЮВ 11 16 км пыль 3/1 540 м
[Cu med, cong Ci sp]
+28.3 +24.4 79 +40 +40 очень
душно
1013.5 1011.5 +26.2 +31.2 0.5
ЮВ 12 16 км пыль 4/1 540 м
[Cu med, cong Ci sp]
+30.2 +24.0 69 +42 +42 опасность
перегрева
1014.0 1012.0
ЮВ 10 16 км пыль 3/1 540 м
[Cu hum Ci sp]
+30.7 +24.7 70 +43 +44 опасность
перегрева
1011.7 1009.7 +26.2 +30.9
ЮВ 12 16 км пыль 3/1 540 м
[Cu hum Ci sp]
+29.0 +23.9 74 +40 +40 очень
душно
1010.4 1008.4
В 10 16 км пыль 3/1 480 м
[Cu hum Ci sp]
+27.2 +23.4 80 +37 +37 очень
душно
1012.0 1010.0 +26.2 +30.9
В 6 16 км пыль 3/1 480 м
[Cu med, cong Ci sp]
+27.2 +23.5 80 +37 +37 очень
душно
1014.0 1012.0
В 8 16 км пыль 6/3 480 м
[Cu med, cong Ac trans Ci sp]
+27.0 +23.3 80 +36 +36 очень
душно
1011.9 1009.9 +26.2 +30.9
В 8 16 км пыль 4/3 480 м
[Cu med, cong Ci sp]
+26.6 +22.6 79 +35 +35 очень
душно
1011.9 1009.9
ЮВ 11 15 км пыль 9/1 540 м
[Cu med, cong Cs]
+28.3 +23.5 75 +38 +38 очень
душно
1013.6 1011.6 +26.6 +30.9
ЮВ 13 13 км пыль 9/1 540 м
[Cu hum Cs]
+29.6 +23.9 71 +41 +41 опасность
перегрева
1014.2 1012.2
ЮВ 11 13 км пыль 9/3 540 м
[Cu med, cong Cs]
+30.3 +24.1 69 +42 +42 опасность
перегрева
1012.2 1010.2 +26.6 +30.9
Местоположение метеостанции Краун-Пойнт (Тринидад и Тобаго): широта 11.15 долгота -60.83 высота над уровнем моря 6 м.
В архиве по умолчанию представлена погода в Краун-Пойнте за последнюю неделю. Архивные данные за месяц целиком и за предыдущие месяцы, начиная с января 2011 года, Вы можете получить, выбрав интересующий диапазон дат из раскрывающегося списка и нажав кнопку "Найти!".
*Определитесь, кто Вы:
Внимание! Время в таблицах - всемирное. Для получения местного времени необходимо прибавить поправку, которая равна -4 ч.
Смотрите также архив погоды в соседних городах и на ближайших метеорологических станциях:
Партнеры нашего сайта:      
Пояснения к столбцам:
  • Ветер - указаны скорость ветра в м/с - средняя за 10 мин, порывы в срок и между сроками (в фигурных скобках) и направление, откуда дует ветер: С - северный,
  • СВ - северо-восточный, В - восточный, ЮВ - юго-восточный, Ю - южный, ЮЗ - юго-западный, З - западный, СЗ - северо-западный.
  • Видимость - горизонтальная дальность видимости в метрах или километрах. При видимости от 1 до 10 км при отсутствии осадков обычно наблюдается дымка, при ухудшении видимости до 1 км и менее - туман. В сухую погоду видимость может ухудшаться дымом, пылью или мглою.
  • Явления - указаны атмосферные явления, наблюдавшиеся в срок или в последний час перед сроком; фигурными скобками обозначены явления, наблюдавшиеся между сроками (за 1-3 часа до срока); квадратными скобками обозначены град или гололедные отложения с указанием их диаметра в мм.
  • Облачность - указаны через наклонную черту общая и нижняя облачность в баллах и высота нижней границы облаков в метрах; квадратными скобками обозначены формы облаков: Ci - перистые, Cs - перисто-слоистые, Cc - перисто-кучевые, Ac - высококучевые, As - высокослоистые, Sc - слоисто-кучевые, Ns - слоисто-дождевые, Cu - кучевые, Cb - кучево-дождевые. Подробнее классификацию облаков см. в Атласе облаков (PDF).
  • T - Температура воздуха - температура, измеренная на высоте 2 м над землей.
  • Td - Температура точки росы - температура, при понижении до которой содержащийся в воздухе водяной пар достигнет насыщения.
  • f - Относительная влажность воздуха - влажноcть воздуха, измеренная на высоте 2 м над землей.
  • Te - Эффективная температура - температура, которую ощущает одетый по сезону человек в тени. Характеристика душности погоды. При расчете учитывается влияние влажности воздуха и скорости ветра на теплоощущения человека.
  • Tes - Эффективная температура на солнце - температура, которую ощущает человек, с поправкой на солнечный нагрев. Характеристика знойности погоды. Зависит от высоты солнца над горизонтом, облачности и скорости ветра. Ночью, в пасмурную погоду, а также при ветре 12 м/с и более поправка равна нулю.
  • P - Атмосферное давление - приведенное к уровню моря атмосферное давление.
  • Po - Атмосферное давление - измеренное на уровне метеостанции атмосферное давление.
  • Tmin - Минимальная температура - минимум температуры воздуха на высоте 2 м над землей.
  • Tmax - Максимальная температура - максимум температуры воздуха на высоте 2 м над землей.
  • R - Количество осадков - Количество выпавших осадков за период времени, мм. При наведении курсора мыши на число - период времени, за который выпало указанное количество осадков.
  • R24 - Количество осадков - Количество выпавших осадков за 24 часа, мм.
  • S - Снежный покров - Высота снежного покрова, см. При наведении курсора мыши на число - состояние снежного покрова и степень покрытия местности в баллах.